Location: Hains Lake
(37.8540°N, 99.8578°W)
Time: 11:10:22
(UTC+00:00)

Tiros 1 - All Passes

Search period start: 18 April 2021 00:00
Search period end: 28 April 2021 00:00
Orbit: 630 x 663 km, 48.4° (Epoch: 17 April)

Date Brightness Start Highest point End Pass type
(mag) Time Alt. Az. Time Alt. Az. Time Alt. Az.
18 Apr - 15:23:47 10° SSW 15:28:07 40° SE 15:32:27 10° ENE daylight
18 Apr - 17:05:50 10° W 17:10:17 44° NNW 17:14:44 10° NE daylight
18 Apr - 18:49:40 10° WNW 18:53:19 22° N 18:56:58 10° NE daylight
18 Apr - 20:32:37 10° NW 20:36:35 27° NNE 20:40:33 10° ENE daylight
18 Apr - 22:14:37 10° NW 22:19:15 84° NNE 22:23:54 10° ESE daylight
18 Apr - 23:57:56 10° W 00:00:58 17° SW 00:04:01 10° S daylight
19 Apr - 14:09:32 10° SSE 14:12:19 16° SE 14:15:04 10° E daylight
19 Apr - 15:49:19 10° SW 15:53:59 89° SSE 15:58:38 10° ENE daylight
19 Apr - 17:32:33 10° WNW 17:36:35 29° NNW 17:40:37 10° NE daylight
19 Apr - 19:16:13 10° NW 19:19:51 22° N 19:23:28 10° NE daylight
19 Apr - 20:58:32 10° NW 21:02:55 41° NNE 21:07:18 10° E daylight
19 Apr - 22:40:45 10° WNW 22:45:08 44° SW 22:49:32 10° SSE daylight
20 Apr - 14:33:39 10° SSW 14:37:57 36° SE 14:42:12 10° ENE daylight
20 Apr - 16:15:33 10° WSW 16:20:03 47° NNW 16:24:33 10° NE daylight
20 Apr - 17:59:22 10° WNW 18:03:03 23° N 18:06:44 10° NE daylight
20 Apr - 19:42:24 10° NW 19:46:20 27° NNE 19:50:15 10° ENE daylight
20 Apr - 21:24:25 10° NW 21:29:02 78° NNE 21:33:40 10° ESE daylight
20 Apr - 23:07:32 10° W 23:10:48 19° SW 23:14:04 10° S daylight
21 Apr - 13:19:41 10° SSE 13:22:09 14° SE 13:24:36 10° E daylight
21 Apr - 14:59:06 10° SW 15:03:46 83° SE 15:08:25 10° ENE daylight
21 Apr - 16:42:14 10° W 16:46:20 30° NNW 16:50:25 10° NE daylight
21 Apr - 18:25:58 10° NW 18:29:35 22° N 18:33:11 10° NE daylight
21 Apr - 20:08:20 10° NW 20:12:41 39° NNE 20:17:01 10° E daylight
21 Apr - 21:50:30 10° WNW 21:54:57 48° SW 21:59:24 10° SSE daylight
22 Apr - 13:43:32 10° SSW 13:47:45 33° SE 13:51:56 10° ENE daylight
22 Apr - 15:25:16 10° WSW 15:29:49 50° NNW 15:34:21 10° NE daylight
22 Apr - 17:09:03 10° WNW 17:12:47 23° N 17:16:30 10° NE daylight
22 Apr - 18:52:11 10° NW 18:56:05 26° NNE 18:59:58 10° ENE daylight
22 Apr - 20:34:12 10° NW 20:38:50 72° NNE 20:43:26 10° ESE daylight
22 Apr - 22:17:11 10° W 22:20:38 21° SW 22:24:05 10° S daylight
23 Apr - 12:29:53 10° SSE 12:31:59 13° SE 12:34:04 10° ESE daylight
23 Apr - 14:08:53 10° SW 14:13:33 76° SE 14:18:13 10° ENE daylight
23 Apr - 15:51:55 10° W 15:56:05 31° NNW 16:00:14 10° NE daylight
23 Apr - 17:35:41 10° NW 17:39:18 22° N 17:42:55 10° NE daylight
23 Apr - 19:18:07 10° NW 19:22:26 37° NNE 19:26:44 10° E daylight
23 Apr - 21:00:15 10° WNW 21:04:45 53° SW 21:09:15 10° SE daylight
24 Apr - 12:53:26 10° SSW 12:57:33 31° SE 13:01:40 10° ENE daylight
24 Apr - 14:35:00 10° WSW 14:39:35 54° NNW 14:44:09 10° NE daylight
24 Apr - 16:18:44 10° WNW 16:22:31 24° N 16:26:16 10° NE daylight
24 Apr - 18:01:57 10° NW 18:05:49 25° NNE 18:09:39 10° ENE daylight
24 Apr - 19:44:00 10° NW 19:48:37 67° NNE 19:53:12 10° ESE daylight
24 Apr - 21:26:50 10° W 21:30:28 23° SW 21:34:05 10° S daylight
25 Apr - 11:40:13 10° SSE 11:41:49 12° SE 11:43:24 10° ESE daylight
25 Apr - 13:18:40 10° SW 13:23:21 70° SE 13:28:00 10° ENE daylight
25 Apr - 15:01:36 10° W 15:05:50 32° NNW 15:10:02 10° NE daylight
25 Apr - 16:45:25 10° NW 16:49:01 22° N 16:52:38 10° NE daylight
25 Apr - 18:27:55 10° NW 18:32:12 35° NNE 18:36:27 10° E daylight
25 Apr - 20:10:02 10° WNW 20:14:34 58° SW 20:19:05 10° SE daylight
26 Apr - 12:03:21 10° SSW 12:07:22 28° SE 12:11:22 10° ENE daylight
26 Apr - 13:44:43 10° WSW 13:49:21 58° NNW 13:53:58 10° NE daylight
26 Apr - 15:28:26 10° WNW 15:32:14 24° N 15:36:02 10° NE daylight
26 Apr - 17:11:42 10° NW 17:15:33 25° N 17:19:21 10° ENE daylight
26 Apr - 18:53:47 10° NW 18:58:23 62° NNE 19:02:57 10° ESE daylight
26 Apr - 20:36:31 10° W 20:40:17 25° SW 20:44:03 10° S daylight
27 Apr - 10:50:52 10° SE 10:51:39 10° SE 10:52:25 10° ESE visible
27 Apr - 12:28:28 10° SW 12:33:08 64° SE 12:37:47 10° ENE daylight
27 Apr - 14:11:17 10° W 14:15:34 34° NNW 14:19:50 10° NE daylight
27 Apr - 15:55:07 10° NW 15:58:46 22° N 16:02:22 10° NE daylight
27 Apr - 17:37:42 10° NW 17:41:57 34° NNE 17:46:10 10° E daylight
27 Apr - 19:19:47 10° WNW 19:24:22 64° SW 19:28:55 10° SE daylight
